Year,Month,Day,Hour,Minute,Value (Times are PST for temperature in C)
2010,06,10,00,00,12.90
2010,06,10,00,01,12.90
2010,06,10,00,02,12.90
2010,06,10,00,03,12.80
2010,06,10,00,04,12.80
2010,06,10,00,05,12.80
2010,06,10,00,06,12.80
2010,06,10,00,07,12.80
2010,06,10,00,08,12.80
2010,06,10,00,09,12.80
2010,06,10,00,10,12.80
2010,06,10,00,11,12.80
2010,06,10,00,12,12.80
2010,06,10,00,13,12.80
2010,06,10,00,14,12.80
2010,06,10,00,15,12.80
2010,06,10,00,16,12.80
2010,06,10,00,17,12.70
2010,06,10,00,18,12.70
2010,06,10,00,19,12.70
2010,06,10,00,20,12.70
2010,06,10,00,21,12.70
2010,06,10,00,22,12.70
2010,06,10,00,23,12.70
2010,06,10,00,24,12.70
2010,06,10,00,25,12.70
2010,06,10,00,26,12.70
2010,06,10,00,27,12.70
2010,06,10,00,28,12.60
2010,06,10,00,29,12.60
2010,06,10,00,30,12.60
2010,06,10,00,31,12.60
2010,06,10,00,32,12.60
2010,06,10,00,33,12.60
2010,06,10,00,34,12.60
2010,06,10,00,35,12.50
2010,06,10,00,36,12.50
2010,06,10,00,37,12.50
2010,06,10,00,38,12.50
2010,06,10,00,39,12.40
2010,06,10,00,40,12.40
2010,06,10,00,41,12.40
2010,06,10,00,42,12.40
2010,06,10,00,43,12.40
2010,06,10,00,44,12.40
2010,06,10,00,45,12.40
2010,06,10,00,46,12.40
2010,06,10,00,47,12.40
2010,06,10,00,48,12.30
2010,06,10,00,49,12.30
2010,06,10,00,50,12.30
2010,06,10,00,51,12.30
2010,06,10,00,52,12.30
2010,06,10,00,53,12.30
2010,06,10,00,54,12.30
2010,06,10,00,55,12.30
2010,06,10,00,56,12.20
2010,06,10,00,57,12.20
2010,06,10,00,58,12.20
2010,06,10,00,59,12.20
2010,06,10,01,00,12.20
2010,06,10,01,01,12.20
2010,06,10,01,02,12.20
2010,06,10,01,03,12.10
2010,06,10,01,04,12.10
2010,06,10,01,05,12.10
2010,06,10,01,06,12.10
2010,06,10,01,07,12.10
2010,06,10,01,08,12.00
2010,06,10,01,09,12.00
2010,06,10,01,10,12.00
2010,06,10,01,11,11.90
2010,06,10,01,12,11.90
2010,06,10,01,13,11.90
2010,06,10,01,14,11.90
2010,06,10,01,15,11.80
2010,06,10,01,16,11.80
2010,06,10,01,17,11.80
2010,06,10,01,18,11.80
2010,06,10,01,19,11.80
2010,06,10,01,20,11.70
2010,06,10,01,21,11.70
2010,06,10,01,22,11.70
2010,06,10,01,23,11.70
2010,06,10,01,24,11.60
2010,06,10,01,25,11.60
2010,06,10,01,26,11.60
2010,06,10,01,27,11.60
2010,06,10,01,28,11.50
2010,06,10,01,29,11.50
2010,06,10,01,30,11.50
2010,06,10,01,31,11.50
2010,06,10,01,32,11.40
2010,06,10,01,33,11.40
2010,06,10,01,34,11.40
2010,06,10,01,35,11.40
2010,06,10,01,36,11.40
2010,06,10,01,37,11.40
2010,06,10,01,38,11.40
2010,06,10,01,39,11.40
2010,06,10,01,40,11.40
2010,06,10,01,41,11.30
2010,06,10,01,42,11.30
2010,06,10,01,43,11.30
2010,06,10,01,44,11.30
2010,06,10,01,45,11.30
2010,06,10,01,46,11.30
2010,06,10,01,47,11.30
2010,06,10,01,48,11.20
2010,06,10,01,49,11.20
2010,06,10,01,50,11.20
2010,06,10,01,51,11.20
2010,06,10,01,52,11.20
2010,06,10,01,53,11.20
2010,06,10,01,54,11.10
2010,06,10,01,55,11.10
2010,06,10,01,56,11.10
2010,06,10,01,57,11.10
2010,06,10,01,58,11.10
2010,06,10,01,59,11.10
2010,06,10,02,00,11.10
2010,06,10,02,01,11.00
2010,06,10,02,02,11.00
2010,06,10,02,03,11.00
2010,06,10,02,04,11.00
2010,06,10,02,05,10.90
2010,06,10,02,06,10.90
2010,06,10,02,07,10.90
2010,06,10,02,08,10.90
2010,06,10,02,09,10.90
2010,06,10,02,10,10.80
2010,06,10,02,11,10.80
2010,06,10,02,12,10.80
2010,06,10,02,13,10.80
2010,06,10,02,14,10.80
2010,06,10,02,15,10.80
2010,06,10,02,16,10.80
2010,06,10,02,17,10.70
2010,06,10,02,18,10.70
2010,06,10,02,19,10.70
2010,06,10,02,20,10.70
2010,06,10,02,21,10.70
2010,06,10,02,22,10.70
2010,06,10,02,23,10.70
2010,06,10,02,24,10.70
2010,06,10,02,25,10.70
2010,06,10,02,26,10.70
2010,06,10,02,27,10.70
2010,06,10,02,28,10.70
2010,06,10,02,29,10.70
2010,06,10,02,30,10.70
2010,06,10,02,31,10.70
2010,06,10,02,32,10.70
2010,06,10,02,33,10.60
2010,06,10,02,34,10.60
2010,06,10,02,35,10.60
2010,06,10,02,36,10.60
2010,06,10,02,37,10.60
2010,06,10,02,38,10.50
2010,06,10,02,39,10.50
2010,06,10,02,40,10.50
2010,06,10,02,41,10.40
2010,06,10,02,42,10.40
2010,06,10,02,43,10.40
2010,06,10,02,44,10.40
2010,06,10,02,45,10.40
2010,06,10,02,46,10.40
2010,06,10,02,47,10.40
2010,06,10,02,48,10.40
2010,06,10,02,49,10.30
2010,06,10,02,50,10.30
2010,06,10,02,51,10.30
2010,06,10,02,52,10.30
2010,06,10,02,53,10.30
2010,06,10,02,54,10.30
2010,06,10,02,55,10.30
2010,06,10,02,56,10.30
2010,06,10,02,57,10.30
2010,06,10,02,58,10.30
2010,06,10,02,59,10.20
2010,06,10,03,00,10.20
2010,06,10,03,01,10.20
2010,06,10,03,06,10.10
2010,06,10,03,07,10.10
2010,06,10,03,08,10.00
2010,06,10,03,09,10.00
2010,06,10,03,10,9.90
2010,06,10,03,11,9.90
2010,06,10,03,12,9.90
2010,06,10,03,13,9.90
2010,06,10,03,14,9.90
2010,06,10,03,15,9.90
2010,06,10,03,16,9.90
2010,06,10,03,17,9.80
2010,06,10,03,18,9.80
2010,06,10,03,19,9.80
2010,06,10,03,20,9.80
2010,06,10,03,21,9.80
2010,06,10,03,22,9.80
2010,06,10,03,23,9.80
2010,06,10,03,24,9.80
2010,06,10,03,25,9.80
2010,06,10,03,26,9.80
2010,06,10,03,27,9.80
2010,06,10,03,28,9.80
2010,06,10,03,29,9.80
2010,06,10,03,30,9.80
2010,06,10,03,31,9.80
2010,06,10,03,32,9.80
2010,06,10,03,33,9.90
2010,06,10,03,34,9.90
2010,06,10,03,35,9.90
2010,06,10,03,36,9.90
2010,06,10,03,37,9.90
2010,06,10,03,38,9.90
2010,06,10,03,39,9.90
2010,06,10,03,40,9.90
2010,06,10,03,41,9.90
2010,06,10,03,42,9.90
2010,06,10,03,43,9.90
2010,06,10,03,44,9.90
2010,06,10,03,45,9.90
2010,06,10,03,46,9.90
2010,06,10,03,47,9.90
2010,06,10,03,48,9.90
2010,06,10,03,49,9.90
2010,06,10,03,50,9.90
2010,06,10,03,51,9.80
2010,06,10,03,52,9.80
2010,06,10,03,53,9.80
2010,06,10,03,54,9.80
2010,06,10,03,55,9.80
2010,06,10,03,56,9.80
2010,06,10,03,57,9.80
2010,06,10,03,58,9.80
2010,06,10,03,59,9.80
2010,06,10,04,00,9.70
2010,06,10,04,01,9.70
2010,06,10,04,02,9.70
2010,06,10,04,03,9.70
2010,06,10,04,04,9.70
2010,06,10,04,05,9.70
2010,06,10,04,06,9.70
2010,06,10,04,07,9.70
2010,06,10,04,08,9.60
2010,06,10,04,09,9.60
2010,06,10,04,10,9.60
2010,06,10,04,11,9.60
2010,06,10,04,12,9.60
2010,06,10,04,13,9.60
2010,06,10,04,14,9.60
2010,06,10,04,15,9.60
2010,06,10,04,16,9.60
2010,06,10,04,17,9.60
2010,06,10,04,18,9.60
2010,06,10,04,19,9.60
2010,06,10,04,20,9.60
2010,06,10,04,21,9.60
2010,06,10,04,22,9.70
2010,06,10,04,23,9.70
2010,06,10,04,24,9.60
2010,06,10,04,25,9.60
2010,06,10,04,26,9.60
2010,06,10,04,27,9.60
2010,06,10,04,28,9.60
2010,06,10,04,29,9.60
2010,06,10,04,30,9.60
2010,06,10,04,31,9.60
2010,06,10,04,32,9.50
2010,06,10,04,33,9.50
2010,06,10,04,34,9.50
2010,06,10,04,35,9.50
2010,06,10,04,36,9.50
2010,06,10,04,37,9.50
2010,06,10,04,38,9.50
2010,06,10,04,39,9.50
2010,06,10,04,40,9.40
2010,06,10,04,41,9.40
2010,06,10,04,42,9.40
2010,06,10,04,43,9.40
2010,06,10,04,44,9.40
2010,06,10,04,45,9.40
2010,06,10,04,46,9.30
2010,06,10,04,47,9.30
2010,06,10,04,48,9.30
2010,06,10,04,49,9.30
2010,06,10,04,50,9.30
2010,06,10,04,51,9.20
2010,06,10,04,52,9.20
2010,06,10,04,53,9.20
2010,06,10,04,54,9.20
2010,06,10,04,55,9.20
2010,06,10,04,56,9.20
2010,06,10,04,57,9.20
2010,06,10,04,58,9.20
2010,06,10,04,59,9.20
2010,06,10,05,00,9.20
2010,06,10,05,01,9.10
2010,06,10,05,02,9.10
2010,06,10,05,03,9.10
2010,06,10,05,04,9.20
2010,06,10,05,05,9.20
2010,06,10,05,06,9.20
2010,06,10,05,07,9.20
2010,06,10,05,08,9.20
2010,06,10,05,09,9.20
2010,06,10,05,10,9.20
2010,06,10,05,11,9.20
2010,06,10,05,12,9.20
2010,06,10,05,13,9.20
2010,06,10,05,14,9.20
2010,06,10,05,15,9.20
2010,06,10,05,16,9.20
2010,06,10,05,17,9.20
2010,06,10,05,18,9.20
2010,06,10,05,19,9.20
2010,06,10,05,20,9.20
2010,06,10,05,21,9.20
2010,06,10,05,22,9.20
2010,06,10,05,23,9.20
2010,06,10,05,24,9.20
2010,06,10,05,25,9.20
2010,06,10,05,26,9.20
2010,06,10,05,27,9.20
2010,06,10,05,28,9.20
2010,06,10,05,29,9.30
2010,06,10,05,30,9.30
2010,06,10,05,31,9.30
2010,06,10,05,32,9.30
2010,06,10,05,33,9.30
2010,06,10,05,34,9.30
2010,06,10,05,35,9.30
2010,06,10,05,36,9.30
2010,06,10,05,37,9.30
2010,06,10,05,38,9.30
2010,06,10,05,39,9.40
2010,06,10,05,40,9.40
2010,06,10,05,41,9.40
2010,06,10,05,42,9.40
2010,06,10,05,43,9.40
2010,06,10,05,44,9.40
2010,06,10,05,45,9.40
2010,06,10,05,46,9.50
2010,06,10,05,47,9.50
2010,06,10,05,48,9.50
2010,06,10,05,49,9.50
2010,06,10,05,50,9.50
2010,06,10,05,51,9.60
2010,06,10,05,52,9.60
2010,06,10,05,53,9.60
2010,06,10,05,54,9.60
2010,06,10,05,55,9.60
2010,06,10,05,56,9.60
2010,06,10,05,57,9.60
2010,06,10,05,58,9.60
2010,06,10,05,59,9.70
2010,06,10,06,00,9.70
2010,06,10,06,01,9.70
2010,06,10,06,02,9.70
2010,06,10,06,03,9.70
2010,06,10,06,04,9.70
2010,06,10,06,05,9.70
2010,06,10,06,06,9.80
2010,06,10,06,07,9.80
2010,06,10,06,08,9.80
2010,06,10,06,09,9.80
2010,06,10,06,10,9.90
2010,06,10,06,11,9.90
2010,06,10,06,12,9.90
2010,06,10,06,13,9.90
2010,06,10,06,14,10.00
2010,06,10,06,15,10.00
2010,06,10,06,16,10.10
2010,06,10,06,17,10.10
2010,06,10,06,18,10.10
2010,06,10,06,19,10.20
2010,06,10,06,20,10.20
2010,06,10,06,21,10.20
2010,06,10,06,22,10.20
2010,06,10,06,23,10.30
2010,06,10,06,24,10.30
2010,06,10,06,25,10.30
2010,06,10,06,26,10.30
2010,06,10,06,27,10.30
2010,06,10,06,28,10.30
2010,06,10,06,29,10.40
2010,06,10,06,30,10.40
2010,06,10,06,31,10.40
2010,06,10,06,32,10.40
2010,06,10,06,33,10.40
2010,06,10,06,34,10.40
2010,06,10,06,35,10.40
2010,06,10,06,36,10.40
2010,06,10,06,37,10.40
2010,06,10,06,38,10.40
2010,06,10,06,39,10.40
2010,06,10,06,40,10.50
2010,06,10,06,41,10.50
2010,06,10,06,42,10.50
2010,06,10,06,43,10.50
2010,06,10,06,44,10.50
2010,06,10,06,45,10.60
2010,06,10,06,46,10.60
2010,06,10,06,47,10.60
2010,06,10,06,48,10.60
2010,06,10,06,49,10.60
2010,06,10,06,50,10.60
2010,06,10,06,51,10.60
2010,06,10,06,52,10.70
2010,06,10,06,53,10.70
2010,06,10,06,54,10.70
2010,06,10,06,55,10.70
2010,06,10,06,56,10.70
2010,06,10,06,57,10.70
2010,06,10,06,58,10.70
2010,06,10,06,59,10.70
2010,06,10,07,00,10.70
2010,06,10,07,01,10.70
2010,06,10,07,02,10.80
2010,06,10,07,03,10.80
2010,06,10,07,04,10.80
2010,06,10,07,05,10.80
2010,06,10,07,06,10.80
2010,06,10,07,07,10.80
2010,06,10,07,08,10.80
2010,06,10,07,09,10.80
2010,06,10,07,10,10.80
2010,06,10,07,11,10.90
2010,06,10,07,12,10.90
2010,06,10,07,13,10.90
2010,06,10,07,14,10.90
2010,06,10,07,15,10.90
2010,06,10,07,16,10.90
2010,06,10,07,17,10.90
2010,06,10,07,18,10.90
2010,06,10,07,19,10.90
2010,06,10,07,20,10.90
2010,06,10,07,21,10.90
2010,06,10,07,22,10.90
2010,06,10,07,23,10.90
2010,06,10,07,24,11.00
2010,06,10,07,25,11.00
2010,06,10,07,26,11.00
2010,06,10,07,27,11.00
2010,06,10,07,28,11.00
2010,06,10,07,29,11.00
2010,06,10,07,30,11.00
2010,06,10,07,31,11.10
2010,06,10,07,32,11.10
2010,06,10,07,33,11.10
2010,06,10,07,34,11.10
2010,06,10,07,35,11.10
2010,06,10,07,36,11.10
2010,06,10,07,37,11.10
2010,06,10,07,38,11.10
2010,06,10,07,39,11.10
2010,06,10,07,40,11.10
2010,06,10,07,41,11.10
2010,06,10,07,42,11.00
2010,06,10,07,43,11.00
2010,06,10,07,44,11.00
2010,06,10,07,45,11.00
2010,06,10,07,46,11.00
2010,06,10,07,47,11.00
2010,06,10,07,48,11.00
2010,06,10,07,49,11.00
2010,06,10,07,50,11.00
2010,06,10,07,51,11.10
2010,06,10,07,52,11.00
2010,06,10,07,53,11.10
2010,06,10,07,54,11.00
2010,06,10,07,55,11.10
2010,06,10,07,56,11.10
2010,06,10,07,57,11.10
2010,06,10,07,58,11.10
2010,06,10,07,59,11.10
2010,06,10,08,00,11.10
2010,06,10,08,01,11.10
2010,06,10,08,02,11.10
2010,06,10,08,03,11.10
2010,06,10,08,04,11.10
2010,06,10,08,05,11.10
2010,06,10,08,06,11.10
2010,06,10,08,07,11.20
2010,06,10,08,08,11.20
2010,06,10,08,09,11.20
2010,06,10,08,10,11.20
2010,06,10,08,11,11.20
2010,06,10,08,12,11.20
2010,06,10,08,13,11.20
2010,06,10,08,14,11.20
2010,06,10,08,15,11.30
2010,06,10,08,16,11.30
2010,06,10,08,17,11.30
2010,06,10,08,18,11.30
2010,06,10,08,19,11.30
2010,06,10,08,20,11.40
2010,06,10,08,21,11.40
2010,06,10,08,22,11.40
2010,06,10,08,23,11.40
2010,06,10,08,24,11.50
2010,06,10,08,25,11.50
2010,06,10,08,26,11.60
2010,06,10,08,27,11.60
2010,06,10,08,28,11.60
2010,06,10,08,29,11.60
2010,06,10,08,30,11.70
2010,06,10,08,31,11.70
2010,06,10,08,32,11.70
2010,06,10,08,33,11.70
2010,06,10,08,34,11.70
2010,06,10,08,35,11.70
2010,06,10,08,36,11.70
2010,06,10,08,37,11.70
2010,06,10,08,38,11.70
2010,06,10,08,39,11.70
2010,06,10,08,40,11.70
2010,06,10,08,41,11.70
2010,06,10,08,42,11.70
2010,06,10,08,43,11.70
2010,06,10,08,44,11.70
2010,06,10,08,45,11.70
2010,06,10,08,46,11.70
2010,06,10,08,47,11.70
2010,06,10,08,48,11.70
2010,06,10,08,49,11.70
2010,06,10,08,50,11.70
2010,06,10,08,51,11.70
2010,06,10,08,52,11.70
2010,06,10,08,53,11.70
2010,06,10,08,54,11.70
2010,06,10,08,55,11.70
2010,06,10,08,56,11.70
2010,06,10,08,57,11.80
2010,06,10,08,58,11.70
2010,06,10,08,59,11.70
2010,06,10,09,00,11.70
2010,06,10,09,01,11.70
2010,06,10,09,02,11.70
2010,06,10,09,03,11.70
2010,06,10,09,04,11.70
2010,06,10,09,05,11.70
2010,06,10,09,06,11.70
2010,06,10,09,07,11.70
2010,06,10,09,08,11.70
2010,06,10,09,09,11.70
2010,06,10,09,10,11.70
2010,06,10,09,11,11.70
2010,06,10,09,12,11.70
2010,06,10,09,13,11.70
2010,06,10,09,14,11.70
2010,06,10,09,15,11.70
2010,06,10,09,16,11.70
2010,06,10,09,17,11.70
2010,06,10,09,18,11.70
2010,06,10,09,19,11.70
2010,06,10,09,20,11.70
2010,06,10,09,21,11.70
2010,06,10,09,22,11.70
2010,06,10,09,23,11.70
2010,06,10,09,24,11.70
2010,06,10,09,25,11.70
2010,06,10,09,26,11.80
2010,06,10,09,27,11.80
2010,06,10,09,28,11.80
2010,06,10,09,29,11.80
2010,06,10,09,30,11.80
2010,06,10,09,31,11.90
2010,06,10,09,32,11.90
2010,06,10,09,33,11.90
2010,06,10,09,34,11.90
2010,06,10,09,35,11.90
2010,06,10,09,36,12.00
2010,06,10,09,37,12.00
2010,06,10,09,38,12.00
2010,06,10,09,39,12.00
2010,06,10,09,40,12.00
2010,06,10,09,41,12.00
2010,06,10,09,42,12.00
2010,06,10,09,43,11.90
2010,06,10,09,44,11.90
2010,06,10,09,45,11.90
2010,06,10,09,46,11.90
2010,06,10,09,47,11.80
2010,06,10,09,48,11.80
2010,06,10,09,49,11.80
2010,06,10,09,50,11.80
2010,06,10,09,51,11.80
2010,06,10,09,52,11.80
2010,06,10,09,53,11.80
2010,06,10,09,54,11.80
2010,06,10,09,55,11.80
2010,06,10,09,56,11.80
2010,06,10,09,57,11.80
2010,06,10,09,58,11.80
2010,06,10,09,59,11.80
2010,06,10,10,00,11.80
2010,06,10,10,01,11.80
2010,06,10,10,02,11.80
2010,06,10,10,03,11.80
2010,06,10,10,04,11.80
2010,06,10,10,05,11.80
2010,06,10,10,06,11.80
2010,06,10,10,07,11.80
2010,06,10,10,08,11.90
2010,06,10,10,09,11.90
2010,06,10,10,10,11.90
2010,06,10,10,11,11.90
2010,06,10,10,12,11.90
2010,06,10,10,13,12.00
2010,06,10,10,14,12.00
2010,06,10,10,15,12.00
2010,06,10,10,16,12.10
2010,06,10,10,17,12.10
2010,06,10,10,18,12.10
2010,06,10,10,19,12.10
2010,06,10,10,20,12.10
2010,06,10,10,21,12.10
2010,06,10,10,22,12.10
2010,06,10,10,23,12.20
2010,06,10,10,24,12.10
2010,06,10,10,25,12.20
2010,06,10,10,26,12.20
2010,06,10,10,27,12.20
2010,06,10,10,28,12.20
2010,06,10,10,29,12.20
2010,06,10,10,30,12.20
2010,06,10,10,31,12.30
2010,06,10,10,32,12.30
2010,06,10,10,33,12.30
2010,06,10,10,34,12.30
2010,06,10,10,35,12.30
2010,06,10,10,36,12.30
2010,06,10,10,37,12.30
2010,06,10,10,38,12.40
2010,06,10,10,39,12.40
2010,06,10,10,40,12.40
2010,06,10,10,41,12.40
2010,06,10,10,42,12.40
2010,06,10,10,43,12.40
2010,06,10,10,44,12.40
2010,06,10,10,45,12.40
2010,06,10,10,46,12.50
2010,06,10,10,47,12.50
2010,06,10,10,48,12.50
2010,06,10,10,49,12.60
2010,06,10,10,50,12.60
2010,06,10,10,51,12.60
2010,06,10,10,52,12.60
2010,06,10,10,53,12.60
2010,06,10,10,54,12.60
2010,06,10,10,55,12.60
2010,06,10,10,56,12.50
2010,06,10,10,57,12.50
2010,06,10,10,58,12.50
2010,06,10,10,59,12.40
2010,06,10,11,00,12.40
2010,06,10,11,01,12.40
2010,06,10,11,02,12.30
2010,06,10,11,03,12.30
2010,06,10,11,04,12.30
2010,06,10,11,05,12.30
2010,06,10,11,06,12.30
2010,06,10,11,07,12.30
2010,06,10,11,08,12.30
2010,06,10,11,09,12.30
2010,06,10,11,10,12.30
2010,06,10,11,11,12.40
2010,06,10,11,12,12.40
2010,06,10,11,13,12.40
2010,06,10,11,14,12.40
2010,06,10,11,15,12.40
2010,06,10,11,16,12.40
2010,06,10,11,17,12.50
2010,06,10,11,18,12.50
2010,06,10,11,19,12.60
2010,06,10,11,20,12.60
2010,06,10,11,21,12.60
2010,06,10,11,22,12.70
2010,06,10,11,23,12.70
2010,06,10,11,24,12.70
2010,06,10,11,25,12.70
2010,06,10,11,26,12.70
2010,06,10,11,27,12.70
2010,06,10,11,28,12.70
2010,06,10,11,29,12.70
2010,06,10,11,30,12.70
2010,06,10,11,31,12.70
2010,06,10,11,32,12.80
2010,06,10,11,33,12.80
2010,06,10,11,34,12.80
2010,06,10,11,35,12.80
2010,06,10,11,36,12.80
2010,06,10,11,37,12.80
2010,06,10,11,38,12.80
2010,06,10,11,39,12.80
2010,06,10,11,40,12.80
2010,06,10,11,41,12.80
2010,06,10,11,42,12.80
2010,06,10,11,43,12.90
2010,06,10,11,44,12.90
2010,06,10,11,45,12.90
2010,06,10,11,46,13.00
2010,06,10,11,47,13.00
2010,06,10,11,48,13.00
2010,06,10,11,49,13.10
2010,06,10,11,50,13.10
2010,06,10,11,51,13.10
2010,06,10,11,52,13.20
2010,06,10,11,53,13.20
2010,06,10,11,54,13.20
2010,06,10,11,55,13.20
2010,06,10,11,56,13.20
2010,06,10,11,57,13.20
2010,06,10,11,58,13.30
2010,06,10,11,59,13.30
2010,06,10,12,00,13.30
2010,06,10,12,01,13.30
2010,06,10,12,02,13.40
2010,06,10,12,03,13.40
2010,06,10,12,04,13.40
2010,06,10,12,05,13.50
2010,06,10,12,06,13.50
2010,06,10,12,07,13.60
2010,06,10,12,08,13.60
2010,06,10,12,09,13.60
2010,06,10,12,10,13.60
2010,06,10,12,11,13.60
2010,06,10,12,12,13.70
2010,06,10,12,13,13.70
2010,06,10,12,14,13.70
2010,06,10,12,15,13.60
2010,06,10,12,16,13.60
2010,06,10,12,17,13.60
2010,06,10,12,18,13.60
2010,06,10,12,19,13.60
2010,06,10,12,20,13.60
2010,06,10,12,21,13.60
2010,06,10,12,22,13.60
2010,06,10,12,23,13.70
2010,06,10,12,24,13.70
2010,06,10,12,25,13.80
2010,06,10,12,26,13.80
2010,06,10,12,27,13.80
2010,06,10,12,28,13.80
2010,06,10,12,29,13.80
2010,06,10,12,30,13.90
2010,06,10,12,31,13.90
2010,06,10,12,32,14.00
2010,06,10,12,33,14.00
2010,06,10,12,34,14.10
2010,06,10,12,35,14.10
2010,06,10,12,36,14.10
2010,06,10,12,37,14.10
2010,06,10,12,38,14.10
2010,06,10,12,39,14.20
2010,06,10,12,40,14.20
2010,06,10,12,41,14.20
2010,06,10,12,42,14.30
2010,06,10,12,43,14.30
2010,06,10,12,44,14.30
2010,06,10,12,45,14.40
2010,06,10,12,46,14.40
2010,06,10,12,47,14.40
2010,06,10,12,48,14.40
2010,06,10,12,49,14.40
2010,06,10,12,50,14.40
2010,06,10,12,51,14.50
2010,06,10,12,52,14.50
2010,06,10,12,53,14.50
2010,06,10,12,54,14.50
2010,06,10,12,55,14.50
2010,06,10,12,56,14.50
2010,06,10,12,57,14.50
2010,06,10,12,58,14.50
2010,06,10,12,59,14.50
2010,06,10,13,00,14.50
2010,06,10,13,01,14.60
2010,06,10,13,02,14.60
2010,06,10,13,03,14.60
2010,06,10,13,04,14.60
2010,06,10,13,05,14.60
2010,06,10,13,06,14.60
2010,06,10,13,07,14.60
2010,06,10,13,08,14.50
2010,06,10,13,09,14.50
2010,06,10,13,10,14.50
2010,06,10,13,11,14.50
2010,06,10,13,12,14.50
2010,06,10,13,13,14.60
2010,06,10,13,14,14.60
2010,06,10,13,15,14.60
2010,06,10,13,16,14.60
2010,06,10,13,17,14.70
2010,06,10,13,18,14.70
2010,06,10,13,19,14.70
2010,06,10,13,20,14.70
2010,06,10,13,21,14.80
2010,06,10,13,22,14.80
2010,06,10,13,23,14.80
2010,06,10,13,24,14.80
2010,06,10,13,25,14.90
2010,06,10,13,26,14.90
2010,06,10,13,27,15.00
2010,06,10,13,28,15.00
2010,06,10,13,29,15.10
2010,06,10,13,30,15.10
2010,06,10,13,31,15.10
2010,06,10,13,32,15.10
2010,06,10,13,33,15.10
2010,06,10,13,34,15.10
2010,06,10,13,35,15.20
2010,06,10,13,36,15.20
2010,06,10,13,37,15.20
2010,06,10,13,38,15.30
2010,06,10,13,39,15.30
2010,06,10,13,40,15.30
2010,06,10,13,41,15.30
2010,06,10,13,42,15.30
2010,06,10,13,43,15.30
2010,06,10,13,44,15.30
2010,06,10,13,45,15.40
2010,06,10,13,46,15.40
2010,06,10,13,47,15.40
2010,06,10,13,48,15.50
2010,06,10,13,49,15.50
2010,06,10,13,50,15.50
2010,06,10,13,51,15.60
2010,06,10,13,52,15.60
2010,06,10,13,53,15.60
2010,06,10,13,54,15.70
2010,06,10,13,55,15.70
2010,06,10,13,56,15.70
2010,06,10,13,57,15.70
2010,06,10,13,58,15.70
2010,06,10,13,59,15.70
2010,06,10,14,00,15.70
2010,06,10,14,01,15.70
2010,06,10,14,02,15.70
2010,06,10,14,03,15.70
2010,06,10,14,04,15.70
2010,06,10,14,05,15.70
2010,06,10,14,06,15.70
2010,06,10,14,07,15.70
2010,06,10,14,08,15.80
2010,06,10,14,09,15.80
2010,06,10,14,10,15.90
2010,06,10,14,11,15.90
2010,06,10,14,12,16.00
2010,06,10,14,13,16.10
2010,06,10,14,14,16.10
2010,06,10,14,15,16.20
2010,06,10,14,16,16.20
2010,06,10,14,17,16.30
2010,06,10,14,18,16.30
2010,06,10,14,19,16.30
2010,06,10,14,20,16.30
2010,06,10,14,21,16.20
2010,06,10,14,22,16.20
2010,06,10,14,23,16.20
2010,06,10,14,24,16.20
2010,06,10,14,25,16.20
2010,06,10,14,26,16.20
2010,06,10,14,27,16.20
2010,06,10,14,28,16.20
2010,06,10,14,29,16.30
2010,06,10,14,30,16.40
2010,06,10,14,31,16.40
2010,06,10,14,32,16.50
2010,06,10,14,33,16.50
2010,06,10,14,34,16.50
2010,06,10,14,35,16.40
2010,06,10,14,36,16.40
2010,06,10,14,37,16.40
2010,06,10,14,38,16.40
2010,06,10,14,39,16.50
2010,06,10,14,40,16.50
2010,06,10,14,41,16.60
2010,06,10,14,42,16.60
2010,06,10,14,43,16.60
2010,06,10,14,44,16.60
2010,06,10,14,45,16.60
2010,06,10,14,46,16.60
2010,06,10,14,47,16.60
2010,06,10,14,48,16.70
2010,06,10,14,49,16.70
2010,06,10,14,50,16.70
2010,06,10,14,51,16.80
2010,06,10,14,52,16.80
2010,06,10,14,53,16.90
2010,06,10,14,54,17.00
2010,06,10,14,55,17.00
2010,06,10,14,56,17.10
2010,06,10,14,57,17.20
2010,06,10,14,58,17.20
2010,06,10,14,59,17.20
2010,06,10,15,00,17.30
2010,06,10,15,01,17.30
2010,06,10,15,02,17.20
2010,06,10,15,03,17.20
2010,06,10,15,04,17.20
2010,06,10,15,05,17.10
2010,06,10,15,06,17.10
2010,06,10,15,07,17.00
2010,06,10,15,08,17.00
2010,06,10,15,09,16.90
2010,06,10,15,10,16.90
2010,06,10,15,11,16.80
2010,06,10,15,12,16.80
2010,06,10,15,13,16.80
2010,06,10,15,14,16.70
2010,06,10,15,15,16.70
2010,06,10,15,16,16.60
2010,06,10,15,17,16.60
2010,06,10,15,18,16.50
2010,06,10,15,19,16.50
2010,06,10,15,20,16.50
2010,06,10,15,21,16.50
2010,06,10,15,22,16.50
2010,06,10,15,23,16.50
2010,06,10,15,24,16.60
2010,06,10,15,25,16.60
2010,06,10,15,26,16.60
2010,06,10,15,27,16.60
2010,06,10,15,28,16.60
2010,06,10,15,29,16.60
2010,06,10,15,30,16.60
2010,06,10,15,31,16.60
2010,06,10,15,32,16.60
2010,06,10,15,33,16.60
2010,06,10,15,34,16.60
2010,06,10,15,35,16.60
2010,06,10,15,36,16.60
2010,06,10,15,37,16.50
2010,06,10,15,38,16.50
2010,06,10,15,39,16.50
2010,06,10,15,40,16.40
2010,06,10,15,41,16.40
2010,06,10,15,42,16.40
2010,06,10,15,43,16.40
2010,06,10,15,44,16.30
2010,06,10,15,45,16.30
2010,06,10,15,46,16.40
2010,06,10,15,47,16.40
2010,06,10,15,48,16.30
2010,06,10,15,49,16.30
2010,06,10,15,50,16.30
2010,06,10,15,51,16.30
2010,06,10,15,52,16.30
2010,06,10,15,53,16.30
2010,06,10,15,54,16.30
2010,06,10,15,55,16.30
2010,06,10,15,56,16.20
2010,06,10,15,57,16.20
2010,06,10,15,58,16.10
2010,06,10,15,59,16.10
2010,06,10,16,00,16.10
2010,06,10,16,01,16.10
2010,06,10,16,02,16.10
2010,06,10,16,03,16.10
2010,06,10,16,04,16.10
2010,06,10,16,05,16.10
2010,06,10,16,06,16.10
2010,06,10,16,07,16.10
2010,06,10,16,08,16.20
2010,06,10,16,09,16.20
2010,06,10,16,10,16.20
2010,06,10,16,11,16.30
2010,06,10,16,12,16.30
2010,06,10,16,13,16.30
2010,06,10,16,14,16.30
2010,06,10,16,15,16.30
2010,06,10,16,16,16.30
2010,06,10,16,17,16.30
2010,06,10,16,18,16.30
2010,06,10,16,19,16.30
2010,06,10,16,20,16.30
2010,06,10,16,21,16.30
2010,06,10,16,22,16.30
2010,06,10,16,23,16.30
2010,06,10,16,24,16.30
2010,06,10,16,25,16.30
2010,06,10,16,26,16.30
2010,06,10,16,27,16.30
2010,06,10,16,28,16.30
2010,06,10,16,29,16.20
2010,06,10,16,30,16.20
2010,06,10,16,31,16.20
2010,06,10,16,32,16.30
2010,06,10,16,33,16.30
2010,06,10,16,34,16.30
2010,06,10,16,35,16.30
2010,06,10,16,36,16.30
2010,06,10,16,37,16.30
2010,06,10,16,38,16.30
2010,06,10,16,39,16.30
2010,06,10,16,40,16.40
2010,06,10,16,41,16.40
2010,06,10,16,42,16.40
2010,06,10,16,43,16.40
2010,06,10,16,44,16.40
2010,06,10,16,45,16.40
2010,06,10,16,46,16.40
2010,06,10,16,47,16.40
2010,06,10,16,48,16.40
2010,06,10,16,49,16.40
2010,06,10,16,50,16.40
2010,06,10,16,51,16.50
2010,06,10,16,52,16.50
2010,06,10,16,53,16.50
2010,06,10,16,54,16.50
2010,06,10,16,55,16.60
2010,06,10,16,56,16.60
2010,06,10,16,57,16.60
2010,06,10,16,58,16.60
2010,06,10,16,59,16.70
2010,06,10,17,00,16.70
2010,06,10,17,01,16.70
2010,06,10,17,02,16.70
2010,06,10,17,03,16.70
2010,06,10,17,04,16.70
2010,06,10,17,05,16.70
2010,06,10,17,06,16.80
2010,06,10,17,07,16.80
2010,06,10,17,08,16.80
2010,06,10,17,09,16.70
2010,06,10,17,10,16.70
2010,06,10,17,11,16.70
2010,06,10,17,12,16.70
2010,06,10,17,13,16.70
2010,06,10,17,14,16.70
2010,06,10,17,15,16.60
2010,06,10,17,16,16.60
2010,06,10,17,17,16.50
2010,06,10,17,18,16.40
2010,06,10,17,19,16.40
2010,06,10,17,20,16.40
2010,06,10,17,21,16.30
2010,06,10,17,22,16.30
2010,06,10,17,23,16.30
2010,06,10,17,24,16.40
2010,06,10,17,25,16.30
2010,06,10,17,26,16.30
2010,06,10,17,27,16.30
2010,06,10,17,28,16.30
2010,06,10,17,29,16.30
2010,06,10,17,30,16.30
2010,06,10,17,31,16.30